"Platform","Alpena ReCON Buoy"
"NDBC ID","45162"
"Latitude (deg)",44.9858
"Longitude (deg)",-83.2686
"Water Depth (m)",20
"Sensor Device","System Power Controller board voltage input"
"Sensor Type","Solar panel voltage"
"Sensor Units","voltage"
"Measurement","A sample"
"Time means","Time at sample (UTC time zone)"

"Note:","This data was collected for research purposes."
"Note:","Minimal quality checking has been performed so data may contain known or unknown errors."
"Note:","Data provided by NOAA. Please credit NOAA."
"Note:","For more info see www.glerl.noaa.gov/res/recon"

"Time (UTC)","Solar Panel"
"YYYY/MM/DD HH:MM","volts"
2018/05/03 13:18, 11.82
2018/05/03 13:38, 11.80
2018/05/03 13:58, 11.80
2018/05/03 14:18, 11.81
2018/05/03 14:38, 12.28
2018/05/03 14:58, 12.32
2018/05/03 15:18, 12.42
2018/05/03 15:38, 13.86
2018/05/03 15:58, 13.70
2018/05/03 16:18, 15.84
2018/05/03 16:38, 13.68
2018/05/03 16:58, 14.28
2018/05/03 17:18, 13.80
2018/05/03 17:38, 14.16
2018/05/03 17:58, 14.35
2018/05/03 18:18, 16.54
2018/05/03 18:38, 16.76
2018/05/03 18:58, 17.78
2018/05/03 19:18, 18.79
2018/05/03 19:38, 17.88
2018/05/03 19:58, 17.94
2018/05/03 20:18, 18.91
2018/05/03 20:38, 16.66
2018/05/03 20:58, 19.24
2018/05/03 21:18, 20.01
2018/05/03 21:38, 19.64
2018/05/03 21:58, 19.88
2018/05/03 22:18, 19.61
2018/05/03 22:38, 19.08
2018/05/03 22:58, 15.79
2018/05/03 23:18, 19.66
2018/05/03 23:38, 19.50
2018/05/03 23:58, 18.44
2018/05/04 00:18, 14.47
2018/05/04 00:38, 11.84
2018/05/04 00:58, 12.19
2018/05/04 01:18, 0.57
2018/05/04 01:38, 0.47
2018/05/04 01:58, 0.47
2018/05/04 02:18, 0.47
2018/05/04 02:38, 0.47
2018/05/04 02:58, 0.47
2018/05/04 03:18, 0.47
2018/05/04 03:38, 0.47
2018/05/04 03:58, 0.47
2018/05/04 04:18, 0.47
2018/05/04 04:38, 0.47
2018/05/04 04:58, 0.47
2018/05/04 05:18, 0.47
2018/05/04 05:38, 0.47
2018/05/04 05:58, 0.47
2018/05/04 06:18, 0.47
2018/05/04 06:38, 0.47
2018/05/04 06:58, 0.47
2018/05/04 07:18, 0.47
2018/05/04 07:38, 0.47
2018/05/04 07:58, 0.47
2018/05/04 08:18, 0.47
2018/05/04 08:38, 0.47
2018/05/04 08:58, 0.47
2018/05/04 09:18, 0.47
2018/05/04 09:38, 0.47
2018/05/04 09:58, 0.77
2018/05/04 10:18, 4.53
2018/05/04 10:38, 11.51
2018/05/04 10:58, 11.83
2018/05/04 11:18, 11.83
2018/05/04 11:38, 11.83
2018/05/04 11:58, 11.83
2018/05/04 12:18, 11.84
2018/05/04 12:38, 11.53
2018/05/04 12:58, 12.13
2018/05/04 13:18, 11.87
2018/05/04 13:38, 12.23
2018/05/04 13:58, 12.32
2018/05/04 14:18, 13.52
2018/05/04 14:38, 14.28
2018/05/04 14:58, 14.02
2018/05/04 15:18, 14.29
2018/05/04 15:38, 17.18
2018/05/04 15:58, 14.29
2018/05/04 16:18, 14.49
2018/05/04 16:38, 12.90
2018/05/04 16:58, 13.26
2018/05/04 17:18, 12.85
2018/05/04 17:38, 12.55
2018/05/04 17:58, 12.91
2018/05/04 18:18, 13.21
2018/05/04 18:38, 12.57
2018/05/04 18:58, 13.01
2018/05/04 19:18, 13.82
2018/05/04 19:38, 16.46
2018/05/04 19:58, 13.79
2018/05/04 20:18, 16.12
2018/05/04 20:38, 17.52
2018/05/04 20:58, 15.18
2018/05/04 21:18, 17.80
2018/05/04 21:38, 19.95
2018/05/04 21:58, 19.28
2018/05/04 22:18, 16.29
2018/05/04 22:38, 18.55
2018/05/04 22:58, 19.21
2018/05/04 23:18, 19.17
2018/05/04 23:38, 18.63
2018/05/04 23:58, 17.54
2018/05/05 00:18, 13.47
2018/05/05 00:38, 11.89
2018/05/05 00:58, 12.26
2018/05/05 01:18, 1.15
2018/05/05 01:38, 0.47
2018/05/05 01:58, 0.47
2018/05/05 02:18, 0.47
2018/05/05 02:38, 0.47
2018/05/05 02:58, 0.47
2018/05/05 03:18, 0.47
2018/05/05 03:38, 0.47
2018/05/05 03:58, 0.47
2018/05/05 04:18, 0.47
2018/05/05 04:38, 0.47
2018/05/05 04:58, 0.47
2018/05/05 05:18, 0.47
2018/05/05 05:38, 0.47
2018/05/05 05:58, 0.47
2018/05/05 06:18, 0.47
2018/05/05 06:38, 0.47
2018/05/05 06:58, 0.47
2018/05/05 07:18, 0.47
2018/05/05 07:38, 0.47
2018/05/05 07:58, 0.47
2018/05/05 08:18, 0.47
2018/05/05 08:38, 0.47
2018/05/05 08:58, 0.47
2018/05/05 09:18, 0.47
2018/05/05 09:38, 0.85
2018/05/05 09:58, 11.83
2018/05/05 10:18, 11.85
2018/05/05 10:38, 12.41
2018/05/05 10:58, 15.15
2018/05/05 11:18, 16.48
2018/05/05 11:38, 17.63
2018/05/05 11:58, 17.86
2018/05/05 12:18, 17.85
2018/05/05 12:38, 17.41
2018/05/05 12:58, 18.35
2018/05/05 13:18, 18.69
2018/05/05 13:38, 16.29
2018/05/05 13:58, 17.98
2018/05/05 14:18, 18.82
2018/05/05 14:38, 18.20
2018/05/05 14:58, 18.44
2018/05/05 15:18, 18.27
2018/05/05 15:38, 18.39
2018/05/05 15:58, 18.87
2018/05/05 16:18, 19.01
2018/05/05 16:38, 18.49
2018/05/05 16:58, 19.06
2018/05/05 17:18, 19.02
2018/05/05 17:38, 18.95
2018/05/05 17:58, 19.36
2018/05/05 18:18, 19.87
2018/05/05 18:38, 19.12
2018/05/05 18:58, 19.31
2018/05/05 19:18, 19.95
2018/05/05 19:38, 19.94
2018/05/05 19:58, 19.78
2018/05/05 20:18, 20.07
2018/05/05 20:38, 19.21
2018/05/05 20:58, 19.87
2018/05/05 21:18, 20.04
2018/05/05 21:38, 19.86
2018/05/05 21:58, 20.07
2018/05/05 22:18, 16.62
2018/05/05 22:38, 14.98
2018/05/05 22:58, 19.63
2018/05/05 23:18, 15.15
2018/05/05 23:38, 19.12
2018/05/05 23:58, 18.55
2018/05/06 00:18, 16.75
2018/05/06 00:38, 12.30
2018/05/06 00:58, 12.12
2018/05/06 01:18, 1.26
2018/05/06 01:38, 0.47
2018/05/06 01:58, 0.47
2018/05/06 02:18, 0.47
2018/05/06 02:38, 0.47
2018/05/06 02:58, 0.47
2018/05/06 03:18, 0.47
2018/05/06 03:38, 0.47
2018/05/06 03:58, 0.47
2018/05/06 04:18, 0.47
2018/05/06 04:38, 0.47
2018/05/06 04:58, 0.47
2018/05/06 05:18, 0.47
2018/05/06 05:38, 0.47
2018/05/06 05:58, 0.47
2018/05/06 06:18, 0.47
2018/05/06 06:38, 0.47
2018/05/06 06:58, 0.47
2018/05/06 07:18, 0.47
2018/05/06 07:38, 0.47
2018/05/06 07:58, 0.47
2018/05/06 08:18, 0.47
2018/05/06 08:38, 0.47
2018/05/06 08:58, 0.47
2018/05/06 09:18, 0.47
2018/05/06 09:38, 0.47
2018/05/06 09:58, 11.84
2018/05/06 10:18, 11.92
2018/05/06 10:38, 11.73
2018/05/06 10:58, 12.32
2018/05/06 11:18, 12.32
2018/05/06 11:38, 12.32
2018/05/06 11:58, 12.42
2018/05/06 12:18, 12.99
2018/05/06 12:38, 12.81
2018/05/06 12:58, 13.56
2018/05/06 13:18, 13.79
2018/05/06 13:38, 15.37
2018/05/06 13:58, 13.86
2018/05/06 14:18, 15.15
2018/05/06 14:38, 14.03
2018/05/06 14:58, 14.50
2018/05/06 15:18, 15.21
2018/05/06 15:38, 14.32
2018/05/06 15:58, 14.00
2018/05/06 16:18, 15.45
2018/05/06 16:38, 15.54
2018/05/06 16:58, 18.21
2018/05/06 17:18, 17.45
2018/05/06 17:38, 17.02
2018/05/06 17:58, 17.14
2018/05/06 18:18, 17.70
2018/05/06 18:38, 16.25
2018/05/06 18:58, 17.55
2018/05/06 19:18, 18.16
2018/05/06 19:38, 18.37
2018/05/06 19:58, 20.46
2018/05/06 20:18, 18.05
2018/05/06 20:38, 20.04
2018/05/06 20:58, 18.60
2018/05/06 21:18, 19.67
2018/05/06 21:38, 19.82
2018/05/06 21:58, 19.82
2018/05/06 22:18, 19.79
2018/05/06 22:38, 18.72
2018/05/06 22:58, 19.52
2018/05/06 23:18, 19.59
2018/05/06 23:38, 19.62
2018/05/06 23:58, 19.23
2018/05/07 00:18, 16.36
2018/05/07 00:38, 12.09
2018/05/07 00:58, 12.27
2018/05/07 01:18, 1.56
2018/05/07 01:38, 0.47
2018/05/07 01:58, 0.47
2018/05/07 02:18, 0.47
2018/05/07 02:38, 0.47
2018/05/07 02:58, 0.47
2018/05/07 03:18, 0.47
2018/05/07 03:38, 0.47
2018/05/07 03:58, 0.47
2018/05/07 04:18, 0.47
2018/05/07 04:38, 0.47
2018/05/07 04:58, 0.47
2018/05/07 05:18, 0.47
2018/05/07 05:38, 0.47
2018/05/07 05:58, 0.47
2018/05/07 06:18, 0.47
2018/05/07 06:38, 0.47
2018/05/07 06:58, 0.47
2018/05/07 07:18, 0.47
2018/05/07 07:38, 0.47
2018/05/07 07:58, 0.47
2018/05/07 08:18, 0.47
2018/05/07 08:38, 0.47
2018/05/07 08:58, 0.47
2018/05/07 09:18, 0.47
2018/05/07 09:38, 1.55
2018/05/07 09:58, 11.83
2018/05/07 10:18, 11.92
2018/05/07 10:38, 12.99
2018/05/07 10:58, 16.06
2018/05/07 11:18, 17.45
2018/05/07 11:38, 17.80
2018/05/07 11:58, 18.16
2018/05/07 12:18, 18.59
2018/05/07 12:38, 18.13
2018/05/07 12:58, 18.96
2018/05/07 13:18, 19.11
2018/05/07 13:38, 19.10
2018/05/07 13:58, 19.23
2018/05/07 14:18, 19.13
2018/05/07 14:38, 18.55
2018/05/07 14:58, 19.39
2018/05/07 15:18, 19.14
2018/05/07 15:38, 19.15
2018/05/07 15:58, 19.35
2018/05/07 16:18, 19.31
2018/05/07 16:38, 18.50
2018/05/07 16:58, 19.45
2018/05/07 17:18, 19.67
2018/05/07 17:38, 19.71
2018/05/07 17:58, 19.70
2018/05/07 18:18, 19.66
2018/05/07 18:38, 19.07
2018/05/07 18:58, 19.68
2018/05/07 19:18, 19.81
2018/05/07 19:38, 20.00
2018/05/07 19:58, 19.95
2018/05/07 20:18, 20.01
2018/05/07 20:38, 19.38
2018/05/07 20:58, 20.23
2018/05/07 21:18, 20.18
2018/05/07 21:38, 20.19
2018/05/07 21:58, 20.27
2018/05/07 22:18, 20.21
2018/05/07 22:38, 19.67
2018/05/07 22:58, 20.26
2018/05/07 23:18, 20.14
2018/05/07 23:38, 19.86
2018/05/07 23:58, 19.10
2018/05/08 00:18, 17.06
2018/05/08 00:38, 12.20
2018/05/08 00:58, 12.17
2018/05/08 01:18, 2.02
2018/05/08 01:38, 0.47
2018/05/08 01:58, 0.47
2018/05/08 02:18, 0.47
2018/05/08 02:38, 0.47
2018/05/08 02:58, 0.47
2018/05/08 03:18, 0.47
2018/05/08 03:38, 0.47
2018/05/08 03:58, 0.47
2018/05/08 04:18, 0.47
2018/05/08 04:38, 0.47
2018/05/08 04:58, 0.47
2018/05/08 05:18, 0.47
2018/05/08 05:38, 0.47
2018/05/08 05:58, 0.47
2018/05/08 06:18, 0.47
2018/05/08 06:38, 0.47
2018/05/08 06:58, 0.47
2018/05/08 07:18, 0.47
2018/05/08 07:38, 0.47
2018/05/08 07:58, 0.47
2018/05/08 08:18, 0.47
2018/05/08 08:38, 0.47
2018/05/08 08:58, 0.47
2018/05/08 09:18, 0.47
2018/05/08 09:38, 1.21
2018/05/08 09:58, 11.83
2018/05/08 10:18, 11.93
2018/05/08 10:38, 12.11
2018/05/08 10:58, 12.42
2018/05/08 11:18, 15.43
2018/05/08 11:38, 13.39
2018/05/08 11:58, 17.83
2018/05/08 12:18, 17.95
2018/05/08 12:38, 17.52
2018/05/08 12:58, 18.97
2018/05/08 13:18, 18.74
2018/05/08 13:38, 19.05
2018/05/08 13:58, 19.13
2018/05/08 14:18, 19.27
2018/05/08 14:38, 18.23
2018/05/08 14:58, 19.16
2018/05/08 15:18, 19.01
2018/05/08 15:38, 19.26
2018/05/08 15:58, 19.21
2018/05/08 16:18, 19.02
2018/05/08 16:38, 18.63
2018/05/08 16:58, 19.31
2018/05/08 17:18, 19.34
2018/05/08 17:38, 19.30
2018/05/08 17:58, 19.36
2018/05/08 18:18, 19.38
2018/05/08 18:38, 19.06
2018/05/08 18:58, 19.98
2018/05/08 19:18, 19.89
2018/05/08 19:38, 20.03
2018/05/08 19:58, 19.96
2018/05/08 20:18, 19.81
2018/05/08 20:38, 19.40
2018/05/08 20:58, 19.98
2018/05/08 21:18, 20.08
2018/05/08 21:38, 20.03
2018/05/08 21:58, 19.92
2018/05/08 22:18, 20.12
2018/05/08 22:38, 18.57
2018/05/08 22:58, 18.89
2018/05/08 23:18, 18.67
2018/05/08 23:38, 17.53
2018/05/08 23:58, 13.00
2018/05/09 00:18, 12.47
2018/05/09 00:38, 11.80
2018/05/09 00:58, 12.17
2018/05/09 01:18, 0.77
2018/05/09 01:38, 0.47
2018/05/09 01:58, 0.47
2018/05/09 02:18, 0.47
2018/05/09 02:38, 0.47
2018/05/09 02:58, 0.47
2018/05/09 03:18, 0.47
2018/05/09 03:38, 0.47
2018/05/09 03:58, 0.47
2018/05/09 04:18, 0.47
2018/05/09 04:38, 0.47
2018/05/09 04:58, 0.47
2018/05/09 05:18, 0.47
2018/05/09 05:38, 0.47
2018/05/09 05:58, 0.47
2018/05/09 06:18, 0.47
2018/05/09 06:38, 0.47
2018/05/09 06:58, 0.47
2018/05/09 07:18, 0.47
2018/05/09 07:38, 0.47
2018/05/09 07:58, 0.47
2018/05/09 08:18, 0.47
2018/05/09 08:38, 0.47
2018/05/09 08:58, 0.47
2018/05/09 09:18, 0.47
2018/05/09 09:38, 0.51
2018/05/09 09:58, 11.83
2018/05/09 10:18, 11.83
2018/05/09 10:38, 11.60
2018/05/09 10:58, 12.32
2018/05/09 11:18, 13.81
2018/05/09 11:38, 14.49
2018/05/09 11:58, 16.97
2018/05/09 12:18, 17.81
2018/05/09 12:38, 16.55
2018/05/09 12:58, 18.71
2018/05/09 13:18, 18.48
2018/05/09 13:38, 18.40
2018/05/09 13:58, 17.88
2018/05/09 14:18, 19.34
2018/05/09 14:38, 17.73
2018/05/09 14:58, 19.42
2018/05/09 15:18, 19.45
2018/05/09 15:38, 19.25
2018/05/09 15:58, 19.38
2018/05/09 16:18, 19.12
2018/05/09 16:38, 18.25
2018/05/09 16:58, 19.56
2018/05/09 17:18, 19.12
2018/05/09 17:38, 19.56
2018/05/09 17:58, 19.36
2018/05/09 18:18, 19.34
2018/05/09 18:38, 19.10
2018/05/09 18:58, 19.69
2018/05/09 19:18, 19.41
2018/05/09 19:38, 19.08
2018/05/09 19:58, 17.73
2018/05/09 20:18, 13.79
2018/05/09 20:38, 12.70
2018/05/09 20:58, 13.01
2018/05/09 21:18, 13.83
2018/05/09 21:38, 14.77
2018/05/09 21:58, 17.76
2018/05/09 22:18, 16.02
2018/05/09 22:38, 17.69
2018/05/09 22:58, 19.96
2018/05/09 23:18, 19.51
2018/05/09 23:38, 12.71
2018/05/09 23:58, 12.49
2018/05/10 00:18, 12.32
2018/05/10 00:38, 11.80
2018/05/10 00:58, 1.56
2018/05/10 01:18, 0.47
2018/05/10 01:38, 0.47
2018/05/10 01:58, 0.47
2018/05/10 02:18, 0.47
2018/05/10 02:38, 0.47
2018/05/10 02:58, 0.47
2018/05/10 03:18, 0.47
2018/05/10 03:38, 0.47
2018/05/10 03:58, 0.47
2018/05/10 04:18, 0.47
2018/05/10 04:38, 0.47
2018/05/10 04:58, 0.47
2018/05/10 05:18, 0.47
2018/05/10 05:38, 0.47
2018/05/10 05:58, 0.47
2018/05/10 06:18, 0.47
2018/05/10 06:38, 0.47
2018/05/10 06:58, 0.47
2018/05/10 07:18, 0.47
2018/05/10 07:38, 0.47
2018/05/10 07:58, 0.47
2018/05/10 08:18, 0.47
2018/05/10 08:38, 0.47
2018/05/10 08:58, 0.47
2018/05/10 09:18, 0.47
2018/05/10 09:38, 0.47
2018/05/10 09:58, 3.63
2018/05/10 10:18, 11.82
2018/05/10 10:38, 11.52
2018/05/10 10:58, 11.83
2018/05/10 11:18, 11.83
2018/05/10 11:38, 12.32
2018/05/10 11:58, 13.01
2018/05/10 12:18, 12.91
2018/05/10 12:38, 13.67
2018/05/10 12:58, 13.20
2018/05/10 13:18, 13.08
2018/05/10 13:38, 13.07
2018/05/10 13:58, 13.70
2018/05/10 14:18, 14.23
2018/05/10 14:38, 12.89
2018/05/10 14:58, 14.28
2018/05/10 15:18, 17.93
2018/05/10 15:38, 14.29
2018/05/10 15:58, 14.29
2018/05/10 16:18, 16.61
2018/05/10 16:38, 14.43
2018/05/10 16:58, 17.83
2018/05/10 17:18, 16.70
2018/05/10 17:38, 18.92
2018/05/10 17:58, 18.52
2018/05/10 18:18, 17.06
2018/05/10 18:38, 17.77
2018/05/10 18:58, 19.24
2018/05/10 19:18, 19.42
2018/05/10 19:38, 19.70
2018/05/10 19:58, 19.74
2018/05/10 20:18, 20.01
2018/05/10 20:38, 19.40
2018/05/10 20:58, 20.15
2018/05/10 21:18, 20.14
2018/05/10 21:38, 20.30
2018/05/10 21:58, 20.27
2018/05/10 22:18, 20.27
2018/05/10 22:38, 19.61
2018/05/10 22:58, 19.47
2018/05/10 23:18, 20.35
2018/05/10 23:38, 19.93
2018/05/10 23:58, 19.50
2018/05/11 00:18, 14.18
2018/05/11 00:38, 12.20
2018/05/11 00:58, 12.26
2018/05/11 01:18, 2.62
2018/05/11 01:38, 0.47
2018/05/11 01:58, 0.47
2018/05/11 02:18, 0.47
2018/05/11 02:38, 0.47
2018/05/11 02:58, 0.47
2018/05/11 03:18, 0.47
2018/05/11 03:38, 0.47
2018/05/11 03:58, 0.47
2018/05/11 04:18, 0.47
2018/05/11 04:38, 0.47
2018/05/11 04:58, 0.47
2018/05/11 05:18, 0.47
2018/05/11 05:38, 0.47
2018/05/11 05:58, 0.47
2018/05/11 06:18, 0.47
2018/05/11 06:38, 0.47
2018/05/11 06:58, 0.47
2018/05/11 07:18, 0.47
2018/05/11 07:38, 0.47
2018/05/11 07:58, 0.47
2018/05/11 08:18, 0.47
2018/05/11 08:38, 0.47
2018/05/11 08:58, 0.47
2018/05/11 09:18, 0.47
2018/05/11 09:38, 3.93
2018/05/11 09:58, 11.88
2018/05/11 10:18, 12.55
2018/05/11 10:38, 13.53
2018/05/11 10:58, 16.32
2018/05/11 11:18, 17.54
2018/05/11 11:38, 18.46
2018/05/11 11:58, 18.79
2018/05/11 12:18, 18.81
2018/05/11 12:38, 18.57
2018/05/11 12:58, 17.98
2018/05/11 13:18, 18.90
2018/05/11 13:38, 18.39
2018/05/11 13:58, 18.61
2018/05/11 14:18, 18.33
2018/05/11 14:38, 18.60
2018/05/11 14:58, 19.84
2018/05/11 15:18, 19.62
2018/05/11 15:38, 19.41
2018/05/11 15:58, 20.09
2018/05/11 16:18, 19.60
2018/05/11 16:38, 18.63
2018/05/11 16:58, 19.51
2018/05/11 17:18, 19.33
2018/05/11 17:38, 19.77
2018/05/11 17:58, 19.51
2018/05/11 18:18, 19.58
2018/05/11 18:38, 18.92
2018/05/11 18:58, 19.75
2018/05/11 19:18, 19.36
2018/05/11 19:38, 19.38
2018/05/11 19:58, 18.99
2018/05/11 20:18, 19.41
2018/05/11 20:38, 19.54
2018/05/11 20:58, 17.82
2018/05/11 21:18, 17.08
2018/05/11 21:38, 17.54
2018/05/11 21:58, 17.23
2018/05/11 22:18, 18.87
2018/05/11 22:38, 17.15
2018/05/11 22:58, 17.63
2018/05/11 23:18, 17.62
2018/05/11 23:38, 16.29
2018/05/11 23:58, 14.88
2018/05/12 00:18, 12.91
2018/05/12 00:38, 12.64
2018/05/12 00:58, 12.22
2018/05/12 01:18, 2.89
2018/05/12 01:38, 0.47
2018/05/12 01:58, 0.47
2018/05/12 02:18, 0.47
2018/05/12 02:38, 0.47
2018/05/12 02:58, 0.47
2018/05/12 03:18, 0.47
2018/05/12 03:38, 0.47
2018/05/12 03:58, 0.47
2018/05/12 04:18, 0.47
2018/05/12 04:38, 0.47
2018/05/12 04:58, 0.47
2018/05/12 05:18, 0.47
2018/05/12 05:38, 0.47
2018/05/12 05:58, 0.47
2018/05/12 06:18, 0.47
2018/05/12 06:38, 0.47
2018/05/12 06:58, 0.47
2018/05/12 07:18, 0.47
2018/05/12 07:38, 0.47
2018/05/12 07:58, 0.47
2018/05/12 08:18, 0.47
2018/05/12 08:38, 0.47
2018/05/12 08:58, 0.47
2018/05/12 09:18, 0.47
2018/05/12 09:38, 2.97
2018/05/12 09:58, 11.83
2018/05/12 10:18, 12.47
2018/05/12 10:38, 12.28
2018/05/12 10:58, 16.24
2018/05/12 11:18, 17.72
2018/05/12 11:38, 18.20
2018/05/12 11:58, 18.49
2018/05/12 12:18, 18.54
2018/05/12 12:38, 17.82
2018/05/12 12:58, 18.79
2018/05/12 13:18, 19.16
2018/05/12 13:38, 19.23
2018/05/12 13:58, 19.28
2018/05/12 14:18, 19.35
2018/05/12 14:38, 18.75
2018/05/12 14:58, 19.30
2018/05/12 15:18, 19.46
2018/05/12 15:38, 19.30
2018/05/12 15:58, 19.15
2018/05/12 16:18, 19.27
2018/05/12 16:38, 18.87
2018/05/12 16:58, 18.49
2018/05/12 17:18, 19.45
2018/05/12 17:38, 19.20
2018/05/12 17:58, 19.44
2018/05/12 18:18, 19.25
2018/05/12 18:38, 18.81
2018/05/12 18:58, 19.59
2018/05/12 19:18, 19.72
2018/05/12 19:38, 19.77
2018/05/12 19:58, 19.87
2018/05/12 20:18, 19.92
2018/05/12 20:38, 19.25
2018/05/12 20:58, 19.89
2018/05/12 21:18, 19.80
2018/05/12 21:38, 19.77
2018/05/12 21:58, 19.17
2018/05/12 22:18, 18.93
2018/05/12 22:38, 16.70
2018/05/12 22:58, 17.14
2018/05/12 23:18, 16.46
2018/05/12 23:38, 13.25
2018/05/12 23:58, 12.71
2018/05/13 00:18, 12.32
2018/05/13 00:38, 11.81
2018/05/13 00:58, 12.17
2018/05/13 01:18, 2.84
2018/05/13 01:38, 0.47
2018/05/13 01:58, 0.47
2018/05/13 02:18, 0.47
2018/05/13 02:38, 0.47
2018/05/13 02:58, 0.47
2018/05/13 03:18, 0.47
2018/05/13 03:38, 0.47
2018/05/13 03:58, 0.47
2018/05/13 04:18, 0.47
2018/05/13 04:38, 0.47
2018/05/13 04:58, 0.47
2018/05/13 05:18, 0.47
2018/05/13 05:38, 0.47
2018/05/13 05:58, 0.47
2018/05/13 06:18, 0.47
2018/05/13 06:38, 0.47
2018/05/13 06:58, 0.47
2018/05/13 07:18, 0.47
2018/05/13 07:38, 0.47
2018/05/13 07:58, 0.47
2018/05/13 08:18, 0.47
2018/05/13 08:38, 0.47
2018/05/13 08:58, 0.47
2018/05/13 09:18, 0.47
2018/05/13 09:38, 3.64
2018/05/13 09:58, 11.83
2018/05/13 10:18, 12.71
2018/05/13 10:38, 13.83
2018/05/13 10:58, 16.80
2018/05/13 11:18, 18.06
2018/05/13 11:38, 18.16
2018/05/13 11:58, 18.28
2018/05/13 12:18, 18.27
2018/05/13 12:38, 17.73
2018/05/13 12:58, 18.30
2018/05/13 13:18, 18.13
2018/05/13 13:38, 18.31
2018/05/13 13:58, 18.68
2018/05/13 14:18, 18.43
2018/05/13 14:38, 18.40
2018/05/13 14:58, 18.75
2018/05/13 15:18, 18.83
2018/05/13 15:38, 18.87
2018/05/13 15:58, 18.78
2018/05/13 16:18, 19.03
2018/05/13 16:38, 18.18
2018/05/13 16:58, 19.14
2018/05/13 17:18, 19.42
2018/05/13 17:38, 19.56
2018/05/13 17:58, 19.34
2018/05/13 18:18, 20.19
2018/05/13 18:38, 19.29
2018/05/13 18:58, 19.94
2018/05/13 19:18, 19.85
2018/05/13 19:38, 19.96
2018/05/13 19:58, 20.17
2018/05/13 20:18, 19.92
2018/05/13 20:38, 19.60
2018/05/13 20:58, 19.98
2018/05/13 21:18, 20.02
2018/05/13 21:38, 20.13
2018/05/13 21:58, 20.10
2018/05/13 22:18, 20.14
2018/05/13 22:38, 19.68
2018/05/13 22:58, 20.07
2018/05/13 23:18, 20.04
2018/05/13 23:38, 19.85
2018/05/13 23:58, 19.27
2018/05/14 00:18, 18.29
2018/05/14 00:38, 12.72
2018/05/14 00:58, 12.32
2018/05/14 01:18, 12.24
2018/05/14 01:38, 0.47
2018/05/14 01:58, 0.47
2018/05/14 02:18, 0.47
2018/05/14 02:38, 0.47
2018/05/14 02:58, 0.47
2018/05/14 03:18, 0.47
2018/05/14 03:38, 0.47
2018/05/14 03:58, 0.47
2018/05/14 04:18, 0.47
2018/05/14 04:38, 0.47
2018/05/14 04:58, 0.47
2018/05/14 05:18, 0.47
2018/05/14 05:38, 0.47
2018/05/14 05:58, 0.47
2018/05/14 06:18, 0.47
2018/05/14 06:38, 0.47
2018/05/14 06:58, 0.47
2018/05/14 07:18, 0.47
2018/05/14 07:38, 0.47
2018/05/14 07:58, 0.47
2018/05/14 08:18, 0.47
2018/05/14 08:38, 0.47
2018/05/14 08:58, 0.47
2018/05/14 09:18, 0.47
2018/05/14 09:38, 4.42
2018/05/14 09:58, 11.92
2018/05/14 10:18, 12.42
2018/05/14 10:38, 13.25
2018/05/14 10:58, 15.54
2018/05/14 11:18, 17.34
2018/05/14 11:38, 18.07
2018/05/14 11:58, 18.19
2018/05/14 12:18, 18.79
2018/05/14 12:38, 13.78
2018/05/14 12:58, 18.85
2018/05/14 13:18, 19.16
2018/05/14 13:38, 17.97
2018/05/14 13:58, 18.66
2018/05/14 14:18, 18.23
2018/05/14 14:38, 18.69
2018/05/14 14:58, 18.54
2018/05/14 15:18, 18.85
2018/05/14 15:38, 18.68
2018/05/14 15:58, 18.64
2018/05/14 16:18, 19.18
2018/05/14 16:38, 18.37
2018/05/14 16:58, 19.24
2018/05/14 17:18, 19.41
2018/05/14 17:38, 20.02
2018/05/14 17:58, 19.24
2018/05/14 18:18, 19.86
2018/05/14 18:38, 19.29
2018/05/14 18:58, 19.95
2018/05/14 19:18, 19.90
2018/05/14 19:38, 19.83
2018/05/14 19:58, 19.79
2018/05/14 20:18, 19.71
2018/05/14 20:38, 19.35
2018/05/14 20:58, 19.93
2018/05/14 21:18, 19.98
2018/05/14 21:38, 18.77
2018/05/14 21:58, 18.29
2018/05/14 22:18, 20.14
2018/05/14 22:38, 19.54
2018/05/14 22:58, 19.84
2018/05/14 23:18, 19.47
2018/05/14 23:38, 19.68
2018/05/14 23:58, 18.71
2018/05/15 00:18, 12.71
2018/05/15 00:38, 12.32
2018/05/15 00:58, 12.31
2018/05/15 01:18, 1.49
2018/05/15 01:38, 0.47
2018/05/15 01:58, 0.47
2018/05/15 02:18, 0.47
2018/05/15 02:38, 0.47
2018/05/15 02:58, 0.47
2018/05/15 03:18, 0.47
2018/05/15 03:38, 0.47
2018/05/15 03:58, 0.47
2018/05/15 04:18, 0.47
2018/05/15 04:38, 0.47
2018/05/15 04:58, 0.47
2018/05/15 05:18, 0.47
2018/05/15 05:38, 0.47
2018/05/15 05:58, 0.47
2018/05/15 06:18, 0.47
2018/05/15 06:38, 0.47
2018/05/15 06:58, 0.47
2018/05/15 07:18, 0.47
2018/05/15 07:38, 0.47
2018/05/15 07:58, 0.47
2018/05/15 08:18, 0.47
2018/05/15 08:38, 0.47
2018/05/15 08:58, 0.47
2018/05/15 09:18, 0.47
2018/05/15 09:38, 0.47
2018/05/15 09:58, 11.83
2018/05/15 10:18, 11.83
2018/05/15 10:38, 11.61
2018/05/15 10:58, 11.92
2018/05/15 11:18, 11.92
2018/05/15 11:38, 12.42
2018/05/15 11:58, 13.06
2018/05/15 12:18, 13.40
2018/05/15 12:38, 13.22
2018/05/15 12:58, 13.11
2018/05/15 13:18, 13.01
2018/05/15 13:38, 13.40
2018/05/15 13:58, 14.47
2018/05/15 14:18, 18.63
2018/05/15 14:38, 16.36
2018/05/15 14:58, 17.11
2018/05/15 15:18, 17.18
2018/05/15 15:38, 17.18
2018/05/15 15:58, 17.56
2018/05/15 16:18, 17.91
2018/05/15 16:38, 16.66
2018/05/15 16:58, 17.64
2018/05/15 17:18, 17.46
2018/05/15 17:38, 17.89
2018/05/15 17:58, 18.12
2018/05/15 18:18, 18.50
2018/05/15 18:38, 17.93
2018/05/15 18:58, 19.03
2018/05/15 19:18, 19.15
2018/05/15 19:38, 19.27
2018/05/15 19:58, 19.40
2018/05/15 20:18, 19.33
2018/05/15 20:38, 18.81
2018/05/15 20:58, 19.67
2018/05/15 21:18, 19.67
2018/05/15 21:38, 19.66
2018/05/15 21:58, 19.62
2018/05/15 22:18, 19.58
2018/05/15 22:38, 19.00
2018/05/15 22:58, 19.63
2018/05/15 23:18, 19.78
2018/05/15 23:38, 19.90
2018/05/15 23:58, 19.16
2018/05/16 00:18, 18.37
2018/05/16 00:38, 13.17
2018/05/16 00:58, 12.32
2018/05/16 01:18, 12.32
2018/05/16 01:38, 0.52
2018/05/16 01:58, 0.47
2018/05/16 02:18, 0.47
2018/05/16 02:38, 0.47
2018/05/16 02:58, 0.47
2018/05/16 03:18, 0.47
2018/05/16 03:38, 0.47
2018/05/16 03:58, 0.47
2018/05/16 04:18, 0.47
2018/05/16 04:38, 0.47
2018/05/16 04:58, 0.47
2018/05/16 05:18, 0.47
2018/05/16 05:38, 0.47
2018/05/16 05:58, 0.47
2018/05/16 06:18, 0.47
2018/05/16 06:38, 0.47
2018/05/16 06:58, 0.47
2018/05/16 07:18, 0.47
2018/05/16 07:38, 0.47
2018/05/16 07:58, 0.47
2018/05/16 08:18, 0.47
2018/05/16 08:38, 0.47
2018/05/16 08:58, 0.47
2018/05/16 09:18, 0.47
2018/05/16 09:38, 5.21
2018/05/16 09:58, 11.93
2018/05/16 10:18, 12.32
2018/05/16 10:38, 13.26
2018/05/16 10:58, 15.70
2018/05/16 11:18, 17.51
2018/05/16 11:38, 18.00
2018/05/16 11:58, 18.09
2018/05/16 12:18, 18.15
2018/05/16 12:38, 17.54
2018/05/16 12:58, 18.62
2018/05/16 13:18, 18.97
2018/05/16 13:38, 18.90
2018/05/16 13:58, 19.03
2018/05/16 14:18, 19.23
2018/05/16 14:38, 18.67
2018/05/16 14:58, 19.23
2018/05/16 15:18, 19.11
2018/05/16 15:38, 18.94
2018/05/16 15:58, 19.04
2018/05/16 16:18, 19.11
2018/05/16 16:38, 18.44